Find STARLINK-37727

NORAD ID: 799500926 Int'l Des: 2026-130D Constellation: starlink operational

Current View

Loading 3D Globe...

About STARLINK-37727

STARLINK-37727 (NORAD 799500926) is a starlink constellation satellite launched Jun 4, 2026

About STARLINK-37727

Description loading...

Upcoming Passes

Passes for default location (London). Set your location on the main map for personalized predictions.

Altitude History

Loading altitude history...

Two-Line Element Set

1 99999C 2026130D 26163.06923610-.00010438 00000-0 -162070-5 0 1636
2 99999 97.2797 182.7828 0010836 273.4968 232.7341 16.04029194 10
Epoch: Jun 12, 2026 • Age: 5 hours

Current Status

Altitude 277.5 km
Velocity 7.74 km/s
Sub-Earth Point -50.15°S, 3.91°W
Launch Date Jun 4, 2026
Age 7 days
Type internet

Most Searched